#timestamp,LO_Frequency,Hit,StdDev 
1548014415.7,286047005.4,Y
1548014435.5,286046998.7,P
1548014455.3,286046993.5,N
1548014475.2,286046990.4,N
1548014495.0,286046995.9,N
1548014495.9,286046995.9,N
1548014515.8,286046994.4,N
1548014535.6,286046990.2,N
1548014585.5,286046984.5,E
1548014595.4,286046989.9,N
1548014615.2,286046997.9,P
1548014635.0,286046990.4,N
1548014636.0,286046990.4,N
1548014655.8,286046992.7,N
1548014675.6,286046992.2,N
1548014695.5,286046992.8,N
1548014715.3,286046990.3,Y
1548014735.2,286047001.1,P
1548014755.9,286047000.9,N
1548014775.7,286046999.3,N
1548014795.6,286046998.5,N
1548014815.4,286047000.6,N
1548014835.2,286046997.4,N
1548014855.1,286047005.5,N
1548014856.0,286047005.5,N
1548014875.8,286047003.7,N
1548014895.7,286047006.3,N
1548014915.5,286047011.8,N
1548014935.3,286047011.4,N
1548014955.2,286047011.5,N
1548014975.0,286047013.4,N
1548014975.9,286047013.4,N
1548014995.7,286047006.1,N
1548015015.6,286047009.4,N
1548015035.4,286047004.1,N
1548015055.3,286046996.0,N
1548015075.1,286046995.6,N
1548015095.8,286047000.3,N
1548015115.7,286047002.6,N
1548015135.5,286047002.8,N
1548015155.4,286047003.9,N
1548015175.2,286046999.7,N
1548015195.0,286046999.6,N
1548015195.9,286046999.6,N
1548015215.8,286046992.2,N
1548015235.6,286046993.7,N
1548015255.4,286046987.1,N
1548015275.3,286046987.3,N
1548015295.1,286046989.2,N
1548015315.9,286046981.1,N
1548015335.7,286046980.1,N
1548015355.5,286046971.4,Y
1548015375.4,286046966.0,P
1548015395.2,286046966.9,N
1548015415.1,286046966.2,N
1548015416.0,286046966.2,N
1548015435.8,286046975.1,N
1548015455.6,286046975.1,N
1548015475.5,286046979.3,N
1548015495.3,286046984.9,N
1548015515.1,286046986.4,N
1548015535.9,286046987.0,N
1548015555.7,286046990.4,N
1548015575.6,286046992.8,N
1548015595.4,286046988.1,N
1548015615.2,286046987.2,N
1548015635.1,286046990.5,N
1548015636.0,286046990.5,N
1548015655.8,286046986.5,N
1548015675.7,286046978.4,N
1548015695.5,286046959.6,Y
1548015715.3,286046966.1,P
1548015735.2,286046963.5,P
1548015755.0,286046954.6,P
1548015755.9,286046954.6,Y
1548015775.8,286046987.4,P
1548015795.6,286046994.5,N
1548015815.5,286046985.9,N
1548015835.3,286046992.7,N
1548015855.1,286046985.3,N
1548015875.9,286046975.6,N
1548015895.7,286046966.7,Y
1548015915.5,286046976.8,P
1548015935.4,286046974.6,P
1548015955.2,286046984.7,P
1548015975.1,286046999.4,N
1548015976.0,286046999.4,N
1548015995.8,286047007.8,N
1548016015.6,286046999.9,N
1548016035.5,286047002.6,N
1548016055.3,286047011.9,N
1548016075.2,286047019.1,N
1548016095.9,286047025.6,N
1548016115.7,286047026.2,N
1548016135.6,286047014.5,N
1548016155.4,286047002.9,N
1548016175.2,286047012.6,N
1548016195.1,286047016.8,N
1548016196.0,286047016.8,N
1548016215.8,286047021.4,N
1548016235.7,286047026.9,N
1548016255.5,286047040.5,N
1548016275.3,286047036.9,N
1548016295.2,286047036.9,N
1548016315.0,286047039.6,N
1548016315.9,286047039.6,N
1548016335.8,286047039.9,N
1548016355.6,286047047.6,N
1548016375.4,286047050.7,N
1548016395.3,286047049.7,N
1548016415.1,286047056.9,N
1548016435.8,286047054.6,N
1548016455.7,286047057.4,N
1548016475.5,286047056.6,N
1548016495.4,286047061.0,Y
1548016515.2,286047032.1,P
1548016535.0,286047035.8,P
1548016535.9,286047035.8,P
1548016555.8,286047037.6,Y
1548016575.6,286047009.0,P
1548016595.5,286047003.7,N
1548016615.3,286047003.5,N
1548016635.1,286047004.7,N
1548016655.9,286047003.8,N
1548016675.7,286047000.4,N
1548016695.5,286047009.6,N
1548016715.4,286047013.0,N
1548016735.2,286047017.8,N
1548016755.1,286047028.3,Y
1548016756.0,286047028.3,P
1548016775.8,286047017.2,N
1548016795.6,286047013.0,N
1548016815.5,286047008.4,N
1548016835.3,286047006.2,N
1548016855.2,286047002.4,N
1548016875.9,286047003.8,N
1548016895.7,286047008.3,N
1548016915.6,286047007.2,N
1548016935.4,286047010.1,N
1548016955.2,286047004.6,N
1548016975.1,286047006.3,N
1548016976.0,286047006.3,N
1548016995.8,286047016.2,N
1548017015.7,286047012.7,N
1548017035.5,286047011.1,N
1548017055.3,286047016.9,N
1548017075.2,286047015.3,N
1548017095.0,286047018.3,Y
1548017095.9,286047018.3,P
1548017115.8,286047004.9,N
1548017135.6,286047005.7,N
1548017155.4,286047008.4,N
1548017175.3,286047011.8,N
1548017195.1,286047016.7,Y
1548017215.9,286046998.5,P
1548017235.7,286046998.8,N
1548017255.5,286047000.1,N
1548017275.4,286047001.3,N
1548017295.2,286047001.4,N
1548017315.0,286047001.8,N
1548017315.9,286047001.8,N
1548017335.8,286047000.0,N
1548017355.6,286046999.0,N
1548017375.5,286046995.1,N
1548017395.3,286047001.1,N
1548017415.1,286047000.5,N
1548017435.9,286047003.4,N
1548017455.7,286047004.7,N
1548017475.5,286047003.8,N
1548017495.4,286047010.0,Y
1548017515.2,286047001.0,P
1548017535.1,286047006.0,P
1548017536.0,286047006.0,N
1548017555.8,286047007.4,Y
1548017575.6,286046998.8,P
1548017595.5,286046999.5,N
1548017615.3,286046998.6,N
1548017635.2,286046998.2,N
1548017655.9,286046994.9,N
1548017675.7,286046995.7,N
1548017695.6,286047001.0,N
1548017715.4,286047002.0,N
1548017735.2,286047007.5,N
1548017755.1,286047004.6,N
1548017756.0,286047004.6,N
1548017775.8,286047004.7,N
1548017795.7,286047005.9,N
1548017815.5,286047002.5,N
1548017835.3,286046998.7,N
1548017855.2,286046993.0,N
1548017875.0,286046988.3,N
1548017875.9,286046988.3,N
1548017895.8,286046985.7,N
1548017915.6,286046982.7,N
1548017935.5,286046980.1,N
1548017955.3,286046969.4,Y
1548017975.1,286046974.8,P
1548017995.9,286046976.8,N
